Zurück zum Katalog

USA 229

AktivMilitärLEO
NORAD 37386·PAYLOAD·🇺🇸 United States

Gestartet Apr 15, 2011 von Vandenberg Space Force Base

Loading…

Nächste Überflüge (nächste 24 Stunden)

TLE

VeraltetSource: Mike McCants

Epoche: Aug 15, 2026, 20:34 UTC

1 37386U 11014A   26227.85727366 0.00000100  00000-0  12288-3 0    05
2 37386  63.4219 129.0480 0361632 356.7576   3.2424 13.41004111    09

Verfolge USA 229 in Echtzeit mit AllMySat

Download on the App Store